Content
SEND FEEDBACK

Daily
Averages
Monthly
Summary
United States of America

YATES CENTER, KANSAS


Home > North America > United States > Kansas
Elevation: 109 feet     Latitude: 37 53N     Longitude: 095 43W

WEATHER
 
SELECT A DAY
Number of Records: 200,669;   Date Range: 1/1/95 - 11/24/14
 
SHARE

PRINT THIS DATA

[ ← Previous Day ]
WEATHER ALMANAC - JANUARY 31, 2013
[ Next Day → ]
[ °C ]   °F
Weather ElementAverageHighLow
Temperature23.7 °F30.9 °F (11:52 am)14 °F (10:52 pm)
Dewpoint14.3 °F21 °F (5:52 am)3.9 °F (6:52 pm)
Humidity68.3 %85 % (2:52 am)48 % (4:52 pm)
Barometer30.24 in30.52 in (11:52 pm)29.98 in (4:52 am)
Wind Speed10.2 mph20.7 mph (2:52 pm)
Wind Gust27.6 mph (12:52 pm)
Weather ElementAverage
Visibility9.4 mi
Wind DirectionWNW (282.1 °)

Weather ElementTotal
Precipitation---
Heating Degree Days42.6 (Base 65)
Averaged from 24 records on January 31, 2013
WEATHER CONDITIONS BREAKOUT
WIND DIRECTION BREAKOUT
WEATHER BY HOUR - JANUARY 31, 2013
[ °C ]   °F
Local TimeTemperatureDewpointHumidityBarometerVisibilityWind DirectionWind SpeedGust SpeedPrecipitationEventsConditions
1:52 AM24.1 °F19.0 °F81 %30.02 in10.0 miSSW (200°)6.9 mphClear
2:52 AM23.0 °F19.0 °F85 %30.01 in10.0 miSSW (200°)6.9 mphClear
3:52 AM24.1 °F19.0 °F81 %30.01 in10.0 miSSW (200°)8.1 mphClear
4:52 AM25.0 °F19.9 °F81 %29.98 in10.0 miSouth (190°)9.2 mphPartly Cloudy
5:52 AM26.1 °F21.0 °F81 %30.01 in10.0 miWSW (250°)6.9 mphMostly Cloudy
6:52 AM25.0 °F19.9 °F81 %30.02 in10.0 miWSW (250°)3.5 mphClear
7:52 AM26.1 °F21.0 °F81 %30.05 in10.0 miWNW (300°)3.5 mphPartly Cloudy
8:52 AM28.9 °F21.0 °F72 %30.09 in10.0 miNorth (350°)13.8 mphMostly Cloudy
9:52 AM30.0 °F21.0 °F69 %30.12 in10.0 miNorth (10°)12.7 mphScattered Clouds
10:52 AM30.0 °F21.0 °F69 %30.19 in10.0 miNorth (350°)8.1 mphOvercast
11:52 AM30.9 °F19.9 °F64 %30.23 in10.0 miNNW (340°)15.0 mph21.9 mphMostly Cloudy
12:52 PM28.9 °F18.0 °F64 %30.27 in10.0 miNorth (350°)15.0 mph27.6 mphOvercast
1:22 PM26.6 °F19.4 °F74 %30.24 in2.5 miNNW (330°)12.7 mph25.3 mph0.00 inSnowLight Snow
1:29 PM26.6 °F19.4 °F74 %30.24 in4.0 miNNW (340°)11.5 mph19.6 mph0.00 inSnowLight Snow
2:52 PM27.0 °F12.0 °F53 %30.30 in10.0 miNNW (340°)20.7 mph27.6 mphScattered Clouds
3:52 PM25.0 °F10.0 °F53 %30.31 in10.0 miNorth (350°)16.1 mph23.0 mphClear
4:52 PM24.1 °F7.0 °F48 %30.35 in10.0 miNorth (360°)15.0 mph26.5 mphClear
5:52 PM21.0 °F5.0 °F50 %30.38 in10.0 miNorth (360°)16.1 mphClear
6:52 PM19.0 °F3.9 °F52 %30.43 in10.0 miNorth (350°)11.5 mphClear
7:52 PM17.1 °F5.0 °F59 %30.46 in10.0 miNorth (360°)12.7 mphClear
8:52 PM16.0 °F5.0 °F62 %30.50 in10.0 miNorth (360°)10.4 mphClear
9:52 PM15.1 °F5.0 °F64 %30.51 in10.0 miNW (320°)5.8 mphClear
10:52 PM14.0 °F6.1 °F71 %30.51 in10.0 miNW (310°)3.5 mphClear
11:52 PM14.0 °F6.1 °F71 %30.52 in10.0 miCalmClear
Hourly data recorded from KCNU, located miles away from Yates Center, Kansas







STORIES FROM OUR PARTNERS